Year,Month,Day,Hour,Minute,Value (Times are PST for temperature in C)
2024,01,14,00,00,-7.70
2024,01,14,00,05,-7.70
2024,01,14,00,10,-7.70
2024,01,14,00,15,-7.80
2024,01,14,00,20,-7.80
2024,01,14,00,25,-7.90
2024,01,14,00,30,-7.90
2024,01,14,00,35,-7.90
2024,01,14,00,40,-8.10
2024,01,14,00,45,-8.10
2024,01,14,00,50,-8.20
2024,01,14,00,55,-8.20
2024,01,14,01,00,-8.30
2024,01,14,01,05,-8.30
2024,01,14,01,10,-8.30
2024,01,14,01,15,-8.30
2024,01,14,01,20,-8.40
2024,01,14,01,25,-8.40
2024,01,14,01,30,-8.40
2024,01,14,01,35,-8.50
2024,01,14,01,40,-8.60
2024,01,14,01,45,-8.60
2024,01,14,01,50,-8.70
2024,01,14,02,00,-8.70
2024,01,14,02,05,-8.80
2024,01,14,02,10,-8.80
2024,01,14,02,15,-8.80
2024,01,14,02,20,-8.80
2024,01,14,02,25,-8.80
2024,01,14,02,30,-8.90
2024,01,14,02,35,-8.90
2024,01,14,02,40,-8.90
2024,01,14,02,45,-9.00
2024,01,14,02,50,-9.00
2024,01,14,03,00,-9.00
2024,01,14,03,05,-9.10
2024,01,14,03,10,-9.10
2024,01,14,03,15,-9.10
2024,01,14,03,20,-9.10
2024,01,14,03,25,-9.10
2024,01,14,03,30,-9.10
2024,01,14,03,35,-9.10
2024,01,14,03,40,-9.10
2024,01,14,03,45,-9.10
2024,01,14,03,50,-9.10
2024,01,14,03,55,-9.20
2024,01,14,04,00,-9.20
2024,01,14,04,05,-9.20
2024,01,14,04,10,-9.10
2024,01,14,04,15,-9.10
2024,01,14,04,20,-9.10
2024,01,14,04,25,-9.10
2024,01,14,04,30,-9.10
2024,01,14,04,35,-9.10
2024,01,14,04,40,-9.20
2024,01,14,04,45,-9.20
2024,01,14,04,50,-9.20
2024,01,14,04,55,-9.30
2024,01,14,05,00,-9.30
2024,01,14,05,05,-9.30
2024,01,14,05,10,-9.20
2024,01,14,05,15,-9.20
2024,01,14,05,20,-9.30
2024,01,14,05,25,-9.30
2024,01,14,05,30,-9.30
2024,01,14,05,40,-9.40
2024,01,14,05,45,-9.40
2024,01,14,05,50,-9.40
2024,01,14,05,55,-9.50
2024,01,14,06,00,-9.50
2024,01,14,06,05,-9.50
2024,01,14,06,10,-9.60
2024,01,14,06,15,-9.60
2024,01,14,06,20,-9.60
2024,01,14,06,25,-9.60
2024,01,14,06,30,-9.60
2024,01,14,06,35,-9.60
2024,01,14,06,40,-9.60
2024,01,14,06,45,-9.60
2024,01,14,06,50,-9.70
2024,01,14,06,55,-9.60
2024,01,14,07,00,-9.60
2024,01,14,07,05,-9.60
2024,01,14,07,10,-9.60
2024,01,14,07,15,-9.60
2024,01,14,07,20,-9.60
2024,01,14,07,25,-9.60
2024,01,14,07,30,-9.60
2024,01,14,07,35,-9.50
2024,01,14,07,40,-9.50
2024,01,14,07,45,-9.60
2024,01,14,07,50,-9.60
2024,01,14,07,55,-9.60
2024,01,14,08,00,-9.60
2024,01,14,08,05,-9.60
2024,01,14,08,10,-9.60
2024,01,14,08,15,-9.60
2024,01,14,08,20,-9.60
2024,01,14,08,25,-9.60
2024,01,14,08,30,-9.70
2024,01,14,08,35,-9.60
2024,01,14,08,40,-9.60
2024,01,14,08,45,-9.50
2024,01,14,08,50,-9.40
2024,01,14,08,55,-9.30
2024,01,14,09,00,-9.30
2024,01,14,09,05,-9.20
2024,01,14,09,10,-9.00
2024,01,14,09,15,-8.90
2024,01,14,09,20,-8.70
2024,01,14,09,25,-8.60
2024,01,14,09,30,-8.50
2024,01,14,09,35,-8.30
2024,01,14,09,40,-8.20
2024,01,14,09,45,-8.10
2024,01,14,09,50,-7.90
2024,01,14,10,00,-7.60
2024,01,14,10,05,-7.40
2024,01,14,10,10,-7.30
2024,01,14,10,15,-7.10
2024,01,14,10,20,-6.90
2024,01,14,10,25,-6.70
2024,01,14,10,30,-6.50
2024,01,14,10,35,-6.30
2024,01,14,10,40,-6.10
2024,01,14,10,45,-5.90
2024,01,14,10,50,-5.70
2024,01,14,10,55,-5.60
2024,01,14,11,00,-5.40
2024,01,14,11,05,-5.30
2024,01,14,11,10,-5.20
2024,01,14,11,15,-5.10
2024,01,14,11,20,-4.90
2024,01,14,11,25,-4.80
2024,01,14,11,30,-4.60
2024,01,14,11,35,-4.40
2024,01,14,11,40,-4.20
2024,01,14,11,45,-4.00
2024,01,14,11,50,-3.70
2024,01,14,11,55,-3.40
2024,01,14,12,00,-3.10
2024,01,14,12,05,-2.90
2024,01,14,12,10,-2.80
2024,01,14,12,15,-2.80
2024,01,14,12,20,-2.80
2024,01,14,12,25,-2.70
2024,01,14,12,30,-2.70
2024,01,14,12,35,-2.60
2024,01,14,12,40,-2.60
2024,01,14,12,45,-2.50
2024,01,14,12,50,-2.30
2024,01,14,12,55,-2.20
2024,01,14,13,00,-1.90
2024,01,14,13,05,-1.80
2024,01,14,13,10,-1.60
2024,01,14,13,15,-1.30
2024,01,14,13,20,-1.20
2024,01,14,13,25,-0.90
2024,01,14,13,30,-0.50
2024,01,14,13,35,-0.20
2024,01,14,13,40,0.20
2024,01,14,13,45,0.30
2024,01,14,13,50,0.50
2024,01,14,13,55,0.40
2024,01,14,14,00,0.60
2024,01,14,14,05,0.80
2024,01,14,14,10,1.10
2024,01,14,14,15,1.10
2024,01,14,14,20,1.20
2024,01,14,14,25,1.10
2024,01,14,14,30,1.20
2024,01,14,14,35,1.10
2024,01,14,14,40,1.20
2024,01,14,14,45,1.10
2024,01,14,14,50,0.90
2024,01,14,14,55,0.70
2024,01,14,15,00,0.50
2024,01,14,15,05,0.30
2024,01,14,15,10,0.10
2024,01,14,15,15,0.00
2024,01,14,15,20,-0.10
2024,01,14,15,25,-0.20
2024,01,14,15,30,-0.20
2024,01,14,15,35,-0.30
2024,01,14,15,40,-0.30
2024,01,14,15,45,-0.40
2024,01,14,15,50,-0.40
2024,01,14,15,55,-0.50
2024,01,14,16,00,-0.60
2024,01,14,16,05,-0.60
2024,01,14,16,10,-0.60
2024,01,14,16,15,-0.60
2024,01,14,16,20,-0.60
2024,01,14,16,25,-0.50
2024,01,14,16,30,-0.40
2024,01,14,16,35,-0.30
2024,01,14,16,40,-0.30
2024,01,14,16,45,-0.30
2024,01,14,16,50,-0.30
2024,01,14,16,55,-0.30
2024,01,14,17,00,-0.30
2024,01,14,17,05,-0.40
2024,01,14,17,10,-0.60
2024,01,14,17,15,-0.70
2024,01,14,17,20,-0.80
2024,01,14,17,25,-0.90
2024,01,14,17,30,-1.10
2024,01,14,17,35,-1.20
2024,01,14,17,40,-1.30
2024,01,14,17,45,-1.40
2024,01,14,17,50,-1.60
2024,01,14,17,55,-1.70
2024,01,14,18,00,-1.90
2024,01,14,18,05,-2.00
2024,01,14,18,10,-2.10
2024,01,14,18,15,-2.20
2024,01,14,18,20,-2.30
2024,01,14,18,25,-2.30
2024,01,14,18,30,-2.40
2024,01,14,18,35,-2.60
2024,01,14,18,40,-2.70
2024,01,14,18,45,-2.80
2024,01,14,18,50,-2.90
2024,01,14,18,55,-3.10
2024,01,14,19,00,-3.20
2024,01,14,19,05,-3.20
2024,01,14,19,10,-3.30
2024,01,14,19,15,-3.30
2024,01,14,19,20,-3.30
2024,01,14,19,30,-3.40
2024,01,14,19,35,-3.50
2024,01,14,19,40,-3.50
2024,01,14,19,45,-3.60
2024,01,14,19,50,-3.60
2024,01,14,19,55,-3.70
2024,01,14,20,00,-3.70
2024,01,14,20,05,-3.70
2024,01,14,20,15,-3.80
2024,01,14,20,20,-3.80
2024,01,14,20,25,-3.90
2024,01,14,20,30,-3.90
2024,01,14,20,35,-3.90
2024,01,14,20,40,-3.80
2024,01,14,20,45,-3.80
2024,01,14,20,50,-3.80
2024,01,14,20,55,-3.80
2024,01,14,21,00,-3.80
2024,01,14,21,05,-3.80
2024,01,14,21,10,-3.80
2024,01,14,21,15,-3.80
2024,01,14,21,20,-3.80
2024,01,14,21,25,-3.80
2024,01,14,21,30,-3.70
2024,01,14,21,35,-3.70
2024,01,14,21,40,-3.60
2024,01,14,21,45,-3.60
2024,01,14,21,50,-3.60
2024,01,14,21,55,-3.60
2024,01,14,22,00,-3.50
2024,01,14,22,05,-3.50
2024,01,14,22,10,-3.60
2024,01,14,22,15,-3.60
2024,01,14,22,20,-3.70
2024,01,14,22,25,-3.70
2024,01,14,22,30,-3.80
2024,01,14,22,35,-3.90
2024,01,14,22,40,-4.00
2024,01,14,22,45,-4.10
2024,01,14,22,50,-4.20
2024,01,14,22,55,-4.30
2024,01,14,23,00,-4.40
2024,01,14,23,05,-4.60
2024,01,14,23,10,-4.70
2024,01,14,23,15,-4.80
2024,01,14,23,20,-4.90
2024,01,14,23,25,-5.00
2024,01,14,23,30,-5.20
2024,01,14,23,35,-5.20
2024,01,14,23,40,-5.30
2024,01,14,23,45,-5.30
2024,01,14,23,50,-5.30
2024,01,14,23,55,-5.30
